Вернуться в каталог

COSMOS 1691 DEB

АктивенPO
NORAD 16266·DEBRIS·🇷🇺 Russia

Запущен Oct 9, 1985 с Plesetsk Cosmodrome

Loading…

Ближайшие Пролёты (ближайшие 24 часа)

TLE

СвежийSource: Space-Track

Эпоха: Sep 14, 2026, 06:45 UTC

1 16266U 85094K   26257.28134031  .00000262  00000-0  13236-2 0  9998
2 16266  82.6047 189.2189 0008312  96.7714  57.1863 12.66762124888760

Отслеживайте COSMOS 1691 DEB в реальном времени с AllMySat

Download on the App Store